Regional Weather Roundup
Issued by NWS Northern Indiana

Home | Current Version | Previous Version | Graphics & Text | Print | Product List | Glossary On
Versions: 1 2 3 4 5 6 7 8 9 10 11 12 13 14 15 16 17 18 19 20 21 22 23 24 25 26 27 28 29 30 31 32 33 34 35 36 37 38 39 40 41 42 43 44 45 46 47 48 49 50
000
ASUS43 KIWX 250000
RWRIWX

KIWX WEATHER ROUNDUP
NATIONAL WEATHER SERVICE NORTHERN INDIANA
700 PM EST FRI FEB 24 2017

NOTE: "FAIR" INDICATES FEW OR NO CLOUDS BELOW 12,000 FEET WITH NO
SIGNIFICANT WEATHER AND/OR OBSTRUCTIONS TO VISIBILITY.

* THESE STATIONS ARE NOT UNDER NWS QUALITY CONTROL. THEY ALSO MAY NOT
  REPORT WEATHER SUCH AS PRECIPITATION OR FOG.

INZ001>027-250100-
NORTHERN INDIANA

CITY           SKY/WX    TMP DP  RH WIND       PRES   REMARKS
GARY*          CLOUDY    41  39  93 W12       29.54R
MICHIGAN CITY* CLOUDY    36  36 100 W5        29.52R FOG
KNOX*          CLOUDY    46  32  57 W16       29.50R
SOUTH BEND     CLOUDY    45  43  93 W16       29.50R
6HR MIN TEMP:  45; 6HR MAX TEMP:  63; 6HR PCP:  0.04;

ELKHART*       RAIN      55  52  88 W15       29.45R
GOSHEN         LGT RAIN  58  53  84 SW22      29.45S
6HR MIN TEMP:  58; 6HR MAX TEMP:  65; 6HR PCP:  0.23;

ANGOLA*        CLOUDY    61  55  82 SW16      29.43F
FORT WAYNE     CLOUDY    61  54  77 SW13      29.47S
6HR MIN TEMP:  61; 6HR MAX TEMP:  71; 6HR PCP:  0.01;


$$
INZ028>050-250100-
CENTRAL INDIANA

CITY           SKY/WX    TMP DP  RH WIND       PRES   REMARKS
LAFAYETTE      CLOUDY    52  46  80 W24G31    29.53R
6HR MIN TEMP:  52; 6HR MAX TEMP:  67; 6HR PCP:  0.01;

KOKOMO*        CLOUDY    56  52  86 W18       29.51R
6HR MIN TEMP:  56; 6HR MAX TEMP:  68; 6HR PCP: TRACE;

MUNCIE*        MOCLDY    66  53  63 SW8       29.49S
6HR MIN TEMP:  66; 6HR MAX TEMP:  73; 6HR PCP:  0.12;

INDIANAPOLIS   TSTM      60  54  80 W20       29.52R
6HR MIN TEMP:  60; 6HR MAX TEMP:  74; 6HR PCP:  0.02;


$$
MIZ043>046-050>051-056>058-064>065-071>073-077>080-250100-
SOUTHWEST LOWER MICHIGAN

CITY           SKY/WX    TMP DP  RH WIND       PRES   REMARKS
BATTLE CREEK   LGT RAIN  59  56  89 S13       29.43S
6HR MIN TEMP:  50; 6HR MAX TEMP:  61; 6HR PCP:  0.12;

BENTON HARBOR  FOG       40  38  93 SW10      29.49R VSB 1
6HR MIN TEMP:  40; 6HR MAX TEMP:  57; 6HR PCP:  0.06;

COLDWATER*     CLOUDY    63  55  74 SW9       29.43F
6HR MIN TEMP:  63; 6HR MAX TEMP:  65;

HILLSDALE*     CLOUDY    59  54  82 S7        29.44F
HOLLAND        FOG       45  44  97 SW7       29.43S VSB 1/4
6HR MIN TEMP:  40; 6HR MAX TEMP:  46; 6HR PCP:  0.23;

GRAND RAPIDS   CLOUDY    45  43  93 CALM      29.42R FOG
6HR MIN TEMP:  38; 6HR MAX TEMP:  45; 6HR PCP:  0.10;

KALAMAZOO      CLOUDY    59  54  83 W12       29.44R
6HR MIN TEMP:  52; 6HR MAX TEMP:  61; 6HR PCP:  0.10;

STURGIS*       CLOUDY    59  56  89 W8        29.42F
6HR MIN TEMP:  59; 6HR MAX TEMP:  64; 6HR PCP:  0.02;

THREE RIVERS*  CLOUDY    58  56  91 SW6       29.43S
6HR MIN TEMP:  58; 6HR MAX TEMP:  63;


$$
OHZ001>008-015>018-024>025-250100-
NORTHWEST OHIO

CITY           SKY/WX    TMP DP  RH WIND       PRES   REMARKS
DEFIANCE       CLOUDY    63  51  65 S9        29.46F
6HR MIN TEMP:  61; 6HR MAX TEMP:  68; 6HR PCP:  0.01;

FINDLAY        LGT RAIN  62  53  72 SE16      29.51R
6HR MIN TEMP:  62; 6HR MAX TEMP:  76; 6HR PCP:  0.31;

TOLEDO EXPRESS MOCLDY    63  52  67 S6        29.48S
6HR MIN TEMP:  63; 6HR MAX TEMP:  71; 6HR PCP: TRACE;

TOLEDO METCALF PTCLDY    63  54  72 S12       29.50R
6HR MIN TEMP:  62; 6HR MAX TEMP:  74; 6HR PCP:  0.01;

LIMA           CLOUDY    60  56  86 SW10      29.50F THUNDER
6HR MIN TEMP:  60; 6HR MAX TEMP:  72; 6HR PCP:  0.26;


$$
AND FOR LAKE MICHIGAN COASTAL AND OPEN LAKE BUOY OBSERVATIONS

STATION/POSITION TEMP    WIND        PRES    VSBY  WAVE
                 AIR SEA DIR/SP/G                  HT/PER
                 (F)     (DEG/KT/KT) (MB)    (MI)  (FT/S)
CALUMET HARBOR    41     280/  3/  7  999.2R
MICHIGAN CITY     36     250/ 11/ 12   N/A
BURNS HARBOR      36     320/  7/ 11 1000.7R
SAINT JOSEPH      39     210/ 12/ 13  998.6

$$
&&




USA.gov is the U.S. government's official web portal to all federal, state and local government web resources and services.